Location: Groß Eilstorf
(52.8200°N, 9.4552°E)
Time: 20:29:39
(UTC+00:00)

COSMOS 2428 - Pass Details

Date: 15 May 2026
Orbit: 844 x 855 km, 70.9° (Epoch: 8 June)

Event Time Altitude Azimuth Distance (km) Brightness Sun altitude
Rises 22:49:13 0° 325° (NW) 3,426 7.0 -17.9°
Reaches altitude 10° 22:51:46 10° 320° (NW) 2,485 6.0 -17.9°
Maximum altitude 22:57:08 44° 249° (WSW) 1,155 3.3 -18.0°
Enters shadow 22:59:33 29° 198° (SSW) 1,517 3.5 -18.0°
